[[{"header":{"parameterUnit":"m.s-1","parameterCategory":1,"la1":30.2991,"la2":30.254,"lo1":-89.0895,"lo2":-89.0444,"dy":0.0017,"dx":0.0017,"nx":28,"ny":28,"refTime":"2023-10-11T21:00:00:Z","depth":0,"parameterNumber":2,"parameterNumberName":"U-component_of_WINDS"},"data":[0,0,0,0,0,0,0,0,0,0,0,0,0,0,0,0,0,0,0,0,0,0,0,0,0,0,0,0,0,0,0,0,0,0,0,0,0,0,0,0,0,0,0,0,0,0,0,0,0,0,0,0,0,0,0,0,0,0,-7.7639,-7.7642,0,-7.7896,-7.7898,-7.7901,-7.7812,-7.7806,-7.78,-7.7795,-7.8061,-7.8073,-7.8085,0,0,0,0,0,0,0,0,0,0,0,0,0,-7.7075,-7.7086,-7.7639,-7.7642,-7.7645,-7.7895,-7.7899,-7.7902,-7.7813,-7.7806,-7.7799,-7.7792,-7.8057,-7.8072,-7.8087,0,0,0,0,0,0,0,0,0,0,0,0,0,-7.7325,-7.7089,-7.7638,-7.7631,-7.7633,-7.7894,-7.7899,-7.7903,-7.7814,-7.7806,-7.7797,-7.7789,-7.8052,-7.807,-7.8089,-7.8374,0,0,-7.8145,-7.8153,0,0,0,0,0,0,0,0,-7.7311,-7.7346,-7.7629,-7.7632,-7.7634,-7.7813,-7.7797,-7.8061,-7.7816,-7.7746,-7.7795,-7.7785,-7.7986,-7.8009,-7.8076,-7.8387,-7.8398,-7.8147,-7.8158,-7.8166,-7.8172,0,0,0,0,0,0,0,-7.7293,-7.7334,-7.7741,-7.7633,-7.7637,-7.7616,-7.7642,-7.7847,-7.7911,-7.7751,-7.7745,-7.7777,-7.7986,-7.8058,-7.8082,-7.8402,-7.8147,-7.8163,-7.8175,-7.8182,-7.8961,-7.897,0,0,0,0,0,0,-7.7274,-7.732,-7.7732,-7.7748,-7.7448,-7.7633,-7.7662,-7.7764,-7.7908,-7.7922,-7.7784,-7.7771,-7.8031,-7.806,-7.8091,-7.8436,-7.8166,-7.8184,-7.8194,-7.8952,-7.8963,-7.8974,0,0,0,0,0,0,-7.7263,-7.7312,-7.7722,-7.7533,-7.7583,-7.7651,-7.7767,-7.7774,-7.7847,-7.7932,-7.7944,-7.7846,-7.8025,-7.8065,-7.8304,-7.8444,-7.8192,-7.8209,-7.894,-7.8955,-7.8968,-7.9129,0,0,0,0,0,0,-7.7247,-7.7308,-7.7417,-7.7536,-7.7594,-7.7931,-7.7776,-7.7785,-7.7878,-7.7865,-7.7994,-7.8007,-7.8022,-7.8277,-7.8323,-7.8465,-7.8223,-7.8928,-7.8947,-7.8964,-7.9111,-7.9147,-7.9177,0,0,0,0,0,-7.7227,-7.7452,-7.7423,-7.7473,-7.7731,-7.7939,-7.7973,-7.7983,-7.789,-7.8,-7.8056,-7.8003,-7.8421,-7.8303,-7.8353,-7.8503,-7.892,-7.8942,-7.8963,-7.9097,-7.914,-7.9176,0,0,0,0,0,0,-7.7349,-7.7468,-7.7436,-7.7707,-7.7814,-7.7924,-7.8063,-7.8029,-7.8165,-7.8147,-7.8155,-7.8185,-7.8433,-7.8491,-7.8357,-7.8788,-7.8656,-7.8689,-7.8741,-7.8783,-7.8815,-7.8797,-7.8239,0,0,0,0,0,-7.7407,-7.7565,-7.7661,-7.789,-7.7945,-7.7995,-7.8086,-7.8085,-7.8197,-7.8242,-7.8315,-7.8426,-7.8582,-7.8685,-7.8833,-7.9118,-7.9146,-7.9246,-7.9279,-7.9306,-7.9335,-7.9492,-7.9539,-7.9044,-7.9044,-7.9044,0,0,-7.7529,-7.7613,-7.7713,-7.7917,-7.7999,-7.8165,-7.8034,-7.8214,-7.8337,-7.827,-7.8501,-7.8558,-7.8683,-7.8947,-7.9067,-7.9004,-7.9477,-7.9333,-7.9354,-7.9369,-7.9519,-7.9566,-7.9607,-7.9059,-7.9056,-7.9054,0,0,-7.7837,-7.7916,-7.8116,-7.8202,-7.8328,-7.836,-7.8408,-7.8524,-7.8559,-7.8791,-7.8744,-7.8891,-7.9159,-7.9251,-7.9333,-7.9675,-7.9633,-7.9723,-7.9896,-8.0049,-8.0088,-8.0122,-8.0247,-8.0292,-7.9751,-7.9751,-7.9751,0,-7.7974,-7.822,-7.8224,-7.8409,-7.8501,-7.8445,-7.8649,-7.8732,-7.8901,-7.8966,-7.8892,-7.9229,-7.9309,-7.9594,-7.9678,-7.9745,-7.9802,-7.9709,-8.0081,-8.0116,-8.0149,-8.0268,-8.0315,-7.9761,-7.976,-7.9759,-7.9758,0,-7.8383,-7.8554,-7.8701,-7.8865,-7.8973,-7.9167,-7.9201,-7.931,-7.9299,-7.9339,-7.9577,-7.967,-7.9837,-7.9904,-7.9896,-8.019,-8.0147,-8.0078,-7.9946,-8.0206,-8.0318,-8.0364,-7.9776,-7.9772,-7.9769,-7.9767,0,0,-7.8777,-7.894,-7.8994,-7.9069,-7.9204,-7.9337,-7.9528,-7.9691,-7.9785,-7.9903,-8.0065,-8.0293,-8.023,-8.0323,-8.0324,-8.0458,-8.0726,-8.0372,-8.0375,-8.0437,-8.1059,-8.1113,-8.1165,-8.0697,-8.0706,-8.0713,-8.1049,0,-7.9098,-7.9433,-7.9443,-7.975,-7.991,-7.9859,-8.0026,-8.0128,-8.017,-8.0312,-8.0358,-8.0522,-8.0424,-8.048,-8.061,-8.0666,-8.0851,-8.0641,-8.0851,-8.0859,-8.0825,-8.1223,-8.1281,-8.1594,-8.1093,-8.11,-8.1106,0,-7.9518,-7.9649,-7.9972,-8.0085,-8.0153,-8.0303,-8.0453,-8.0589,-8.0703,-8.0725,-8.0828,-8.0809,-8.1006,-8.0866,-8.1139,-8.0996,-8.1082,-8.1122,-8.1134,-8.1157,-8.1,-8.126,-8.1694,-8.1742,-8.1174,-8.1169,-8.1164,0,-7.9777,-8.0033,-8.0261,-8.0325,-8.0462,-8.0569,-8.0631,-8.0737,-8.0835,-8.0966,-8.1029,-8.1182,-8.1267,-8.1386,-8.141,-8.1305,-8.1684,-8.1545,-8.171,-8.171,-8.1795,-8.179,-8.2252,-8.1845,-8.1844,-8.1843,-8.1842,0,-8.0136,-8.0337,-8.0379,-8.0519,-8.0743,-8.0751,-8.0973,-8.1027,-8.1122,-8.1272,-8.1237,-8.1379,-8.14,-8.1549,-8.1568,-8.1793,-8.183,-8.1855,-8.1858,-8.186,-8.1858,-8.1919,-8.1899,-8.1856,-8.1853,-8.1851,-8.1849,0,-8.0464,-8.05,-8.0745,-8.0854,-8.0886,-8.1047,-8.114,-8.1276,-8.1312,-8.1504,-8.155,-8.161,-8.1782,-8.1816,-8.2021,-8.2034,-8.2302,-8.2282,-8.2264,-8.2263,-8.2426,-8.2412,-8.2947,-8.3019,-8.2562,-8.2566,-8.257,0,-8.0693,-8.0846,-8.0971,-8.1069,-8.1137,-8.1295,-8.1394,-8.1408,-8.1513,-8.1655,-8.1774,-8.1942,-8.2078,-8.2356,-8.2419,-8.2575,-8.2561,-8.2737,-8.2584,-8.2582,-8.2567,-8.2559,-8.2576,-8.2768,-8.2773,-8.2777,-8.278,0,-8.1096,-8.1106,-8.1249,-8.1401,-8.152,-8.1639,-8.1753,-8.1835,-8.1864,-8.1984,-8.216,-8.2265,-8.2473,-8.2642,-8.2798,-8.2863,-8.2829,-8.2827,-8.2874,-8.2879,-8.2864,-8.2878,-8.2347,-8.2816,-8.2812,-8.281,-8.2808,-8.2806,-8.1384,-8.1518,-8.1628,-8.1789,-8.1876,-8.1983,-8.2115,-8.2169,-8.2315,-8.2485,-8.2484,-8.2677,-8.2789,-8.2995,-8.3069,-8.3222,-8.3166,-8.3233,-8.3251,-8.3268,-8.3285,-8.2836,-8.325,-8.3249,-8.3248,-8.3247,-8.3246,0,-8.1787,-8.1855,-8.2003,-8.2163,-8.2291,-8.2244,-8.2367,-8.2478,-8.2647,-8.2753,-8.2887,-8.309,-8.3253,-8.3328,-8.349,-8.3597,-8.3586,-8.364,-8.3634,-8.365,-8.3324,-8.3269,-8.3647,-8.3647,-8.3647,-8.3646,-8.3646,-8.3646,-8.2013,-8.2238,-8.2262,-8.253,-8.2596,-8.2785,-8.2859,-8.2958,-8.3043,-8.3271,-8.3406,-8.3453,-8.3548,-8.3716,-8.3864,-8.3882,-8.3945,-8.4007,-8.4018,-8.3713,-8.3673,-8.3634,-8.3582,-8.402,-8.402,-8.4332,-8.4335,-8.4337]},{"header":{"parameterUnit":"m.s-1","parameterCategory":1,"la1":30.2991,"la2":30.254,"lo1":-89.0895,"lo2":-89.0444,"dy":0.0017,"dx":0.0017,"nx":28,"ny":28,"refTime":"2023-10-11T21:00:00:Z","depth":0,"parameterNumber":3,"parameterNumberName":"V-component_of_WINDS"},"data":[0,0,0,0,0,0,0,0,0,0,0,0,0,0,0,0,0,0,0,0,0,0,0,0,0,0,0,0,0,0,0,0,0,0,0,0,0,0,0,0,0,0,0,0,0,0,0,0,0,0,0,0,0,0,0,0,0,0,-8.5882,-8.5882,0,-8.5927,-8.5927,-8.5928,-8.5797,-8.5793,-8.5789,-8.5785,-8.5827,-8.5831,-8.5836,0,0,0,0,0,0,0,0,0,0,0,0,0,-8.5677,-8.5682,-8.5882,-8.5882,-8.5883,-8.5927,-8.5927,-8.5928,-8.5798,-8.5793,-8.5788,-8.5783,-8.5825,-8.5831,-8.5837,0,0,0,0,0,0,0,0,0,0,0,0,0,-8.5748,-8.5683,-8.5881,-8.5823,-8.5818,-8.5926,-8.5927,-8.5928,-8.5799,-8.5793,-8.5787,-8.5781,-8.5823,-8.583,-8.5837,-8.6002,0,0,-8.586,-8.5863,0,0,0,0,0,0,0,0,-8.5745,-8.5756,-8.5831,-8.5827,-8.5822,-8.585,-8.587,-8.5953,-8.58,-8.5806,-8.5785,-8.5778,-8.5839,-8.5845,-8.5866,-8.6004,-8.6006,-8.586,-8.5865,-8.5868,-8.587,0,0,0,0,0,0,0,-8.574,-8.5753,-8.5899,-8.5832,-8.5827,-8.5793,-8.5796,-8.5885,-8.5855,-8.5805,-8.5796,-8.5803,-8.5835,-8.5859,-8.5866,-8.6007,-8.586,-8.5866,-8.5871,-8.5874,-8.6281,-8.6288,0,0,0,0,0,0,-8.5743,-8.575,-8.5898,-8.59,-8.5768,-8.5802,-8.5805,-8.5847,-8.5854,-8.585,-8.5808,-8.5797,-8.585,-8.5858,-8.5867,-8.606,-8.5868,-8.5874,-8.5879,-8.6275,-8.6283,-8.629,0,0,0,0,0,0,-8.5739,-8.5758,-8.5896,-8.5823,-8.5838,-8.5811,-8.5859,-8.5851,-8.5875,-8.5857,-8.585,-8.5839,-8.5846,-8.5857,-8.597,-8.606,-8.5878,-8.5884,-8.6267,-8.6277,-8.6286,-8.6449,0,0,0,0,0,0,-8.5734,-8.5757,-8.5821,-8.5825,-8.5842,-8.6,-8.5865,-8.5856,-8.5889,-8.5874,-8.5883,-8.5879,-8.5842,-8.596,-8.5977,-8.6067,-8.589,-8.6259,-8.6272,-8.6283,-8.6436,-8.6463,-8.6487,0,0,0,0,0,-8.5727,-8.5864,-8.5825,-8.5843,-8.5922,-8.6006,-8.6015,-8.5971,-8.5896,-8.5959,-8.5947,-8.5879,-8.6047,-8.5972,-8.5991,-8.6084,-8.6253,-8.6268,-8.6282,-8.6424,-8.6458,-8.6486,0,0,0,0,0,0,-8.5869,-8.5863,-8.582,-8.5963,-8.5986,-8.5983,-8.6062,-8.6008,-8.6051,-8.6036,-8.5977,-8.598,-8.6104,-8.6105,-8.6021,-8.6244,-8.6137,-8.6156,-8.6239,-8.6271,-8.6296,-8.6293,-8.5896,0,0,0,0,0,-8.5917,-8.5987,-8.5978,-8.6104,-8.6119,-8.6089,-8.6123,-8.6087,-8.6108,-8.6117,-8.6113,-8.6135,-8.6192,-8.6231,-8.6283,-8.6435,-8.6434,-8.6508,-8.6533,-8.6555,-8.6572,-8.6652,-8.6684,-8.6338,-8.6338,-8.6337,0,0,-8.6016,-8.6022,-8.607,-8.6133,-8.6147,-8.6219,-8.6098,-8.6179,-8.6232,-8.6128,-8.6236,-8.6234,-8.6253,-8.6387,-8.6445,-8.6391,-8.6667,-8.6573,-8.659,-8.6596,-8.667,-8.6703,-8.6732,-8.6348,-8.6346,-8.6344,0,0,-8.6235,-8.6247,-8.6354,-8.6371,-8.6393,-8.6373,-8.6398,-8.6404,-8.64,-8.6507,-8.643,-8.6491,-8.6592,-8.6609,-8.6631,-8.6856,-8.6795,-8.6875,-8.7009,-8.7088,-8.7115,-8.7139,-8.7219,-8.7249,-8.6892,-8.6892,-8.6892,0,-8.6356,-8.6464,-8.6415,-8.6503,-8.6533,-8.6443,-8.655,-8.6568,-8.6606,-8.6628,-8.6567,-8.6692,-8.6699,-8.6835,-8.689,-8.6911,-8.6938,-8.6874,-8.7115,-8.7139,-8.716,-8.7236,-8.7267,-8.6902,-8.6901,-8.69,-8.6899,0,-8.6611,-8.6687,-8.677,-8.6812,-8.685,-8.6947,-8.6911,-8.6956,-8.6916,-8.6901,-8.701,-8.7016,-8.7068,-8.7097,-8.7058,-8.7227,-8.7193,-8.7125,-8.7017,-8.7204,-8.7274,-8.7303,-8.6916,-8.6912,-8.6909,-8.6907,0,0,-8.6921,-8.6934,-8.6966,-8.6983,-8.7002,-8.7059,-8.715,-8.7203,-8.7242,-8.7271,-8.7346,-8.7433,-8.737,-8.7395,-8.7357,-8.7427,-8.7605,-8.7349,-8.7349,-8.7397,-8.7791,-8.7843,-8.7878,-8.7564,-8.7569,-8.7573,-8.779,0,-8.7137,-8.7297,-8.7256,-8.7414,-8.7483,-8.7399,-8.7479,-8.7498,-8.7487,-8.7542,-8.7527,-8.7591,-8.7503,-8.7517,-8.7582,-8.757,-8.7683,-8.7553,-8.7632,-8.7636,-8.7631,-8.7915,-8.797,-8.8174,-8.7817,-8.7822,-8.7825,0,-8.741,-8.7452,-8.7619,-8.7626,-8.7653,-8.7726,-8.777,-8.7825,-8.7844,-8.783,-8.7859,-8.7807,-8.7896,-8.7788,-8.7909,-8.7822,-8.7851,-8.785,-8.7856,-8.7862,-8.7742,-8.7929,-8.8238,-8.8269,-8.7868,-8.7864,-8.7861,0,-8.762,-8.7717,-8.7829,-8.7847,-8.7858,-8.7911,-8.7918,-8.7932,-8.7966,-8.8003,-8.8024,-8.8072,-8.8098,-8.8135,-8.8096,-8.8021,-8.8224,-8.8112,-8.8214,-8.8216,-8.8261,-8.8259,-8.858,-8.828,-8.8279,-8.8279,-8.8278,0,-8.7866,-8.7971,-8.7924,-8.7993,-8.8108,-8.8058,-8.8172,-8.8169,-8.8182,-8.8247,-8.8176,-8.8239,-8.8185,-8.8242,-8.8213,-8.8318,-8.8329,-8.832,-8.8311,-8.8327,-8.8329,-8.8346,-8.8331,-8.8287,-8.8285,-8.8283,-8.8282,0,-8.812,-8.8093,-8.821,-8.8211,-8.8214,-8.8298,-8.8298,-8.8361,-8.8344,-8.8428,-8.8445,-8.8418,-8.8482,-8.8447,-8.8513,-8.8492,-8.8629,-8.86,-8.8623,-8.8616,-8.872,-8.8711,-8.9064,-8.9108,-8.878,-8.8783,-8.8786,0,-8.8279,-8.8358,-8.8369,-8.8409,-8.8421,-8.8486,-8.852,-8.8473,-8.8512,-8.854,-8.86,-8.8658,-8.8702,-8.8808,-8.8793,-8.8842,-8.8815,-8.8935,-8.8821,-8.8835,-8.8817,-8.8813,-8.882,-8.8958,-8.8962,-8.8965,-8.8967,0,-8.8564,-8.8547,-8.8601,-8.8651,-8.8694,-8.873,-8.876,-8.8796,-8.875,-8.8797,-8.8862,-8.8897,-8.8964,-8.9023,-8.9065,-8.9069,-8.9012,-8.9003,-8.903,-8.9047,-8.9057,-8.9054,-8.8686,-8.8995,-8.8993,-8.8991,-8.8989,-8.8988,-8.8776,-8.8842,-8.886,-8.8922,-8.894,-8.897,-8.9029,-8.9021,-8.9075,-8.9128,-8.9096,-8.9173,-8.9189,-8.924,-8.9252,-8.9311,-8.9262,-8.9301,-8.931,-8.9321,-8.9335,-8.9048,-8.9318,-8.9317,-8.9316,-8.9316,-8.9315,0,-8.9057,-8.9065,-8.9123,-8.9168,-8.9217,-8.9159,-8.9188,-8.9232,-8.9302,-8.9323,-8.9368,-8.9443,-8.9499,-8.9489,-8.954,-8.9588,-8.9563,-8.9603,-8.9599,-8.9601,-8.9375,-8.9348,-8.9623,-8.9623,-8.9623,-8.9623,-8.9623,-8.9623,-8.921,-8.932,-8.9305,-8.9422,-8.9427,-8.9504,-8.9526,-8.9553,-8.9569,-8.9657,-8.9704,-8.9697,-8.9705,-8.9756,-8.9805,-8.98,-8.9822,-8.9873,-8.9859,-8.9648,-8.9617,-8.9588,-8.9562,-8.9878,-8.9878,-9.0079,-9.0081,-9.0083]}]]